Location: Newark
(52.2090°N, 4.1550°W)
Time: 20:32:48
(UTC+00:00)

Explorer 7 - Pass Details

Date: 19 September 2019
Orbit: 485 x 680 km, 50.3° (Epoch: 15 October)

Event Time Altitude Azimuth Distance (km) Brightness Sun altitude
Exits shadow 03:28:30 60° 217° (SW) 772 7.2 -22.1°
Maximum altitude 03:28:52 62° 193° (SSW) 758 7.2 -22.0°
Drops below altitude 10° 03:33:43 10° 113° (ESE) 2,118 10.2 -21.4°
Sets 03:36:06 0° 110° (ESE) 3,030 11.1 -21.1°
